This is the latest recevied weather packets stored in our database for station/object EA6MI-10. If no packets are shown the sender has not sent any weather packets the latest 10 day(s).
| Time | Temp. | Humidity | Pressure | Rain* | Wind** | Luminosity | Snow |
|---|---|---|---|---|---|---|---|
| 1777718360 | 22.78° C | 49% | 1015.4 hPa | - | - | - | - |
| 1777717460 | 23.33° C | 47% | 1015.6 hPa | - | - | - | - |
| 1777716559 | 22.78° C | 48% | 1015.9 hPa | - | - | - | - |
| 1777715659 | 22.22° C | 49% | 1016 hPa | - | - | - | - |
| 1777714759 | 22.22° C | 50% | 1016 hPa | - | - | - | - |
| 1777713859 | 21.67° C | 50% | 1016 hPa | - | - | - | - |
| 1777712966 | 21.67° C | 52% | 1016.1 hPa | - | - | - | - |
| 1777712066 | 21.11° C | 52% | 1016.2 hPa | - | - | - | - |
| 1777711159 | 21.11° C | 54% | 1016.1 hPa | - | - | - | - |
| 1777710259 | 20.56° C | 54% | 1016.1 hPa | - | - | - | - |
| 1777709358 | 20.56° C | 55% | 1016.2 hPa | - | - | - | - |
| 1777708458 | 20.56° C | 56% | 1016.4 hPa | - | - | - | - |
| 1777707561 | 19.44° C | 56% | 1015.8 hPa | - | - | - | - |
| 1777706656 | 20° C | 56% | 1016.3 hPa | - | - | - | - |
| 1777705756 | 20° C | 57% | 1016.2 hPa | - | - | - | - |
| 1777704856 | 20° C | 58% | 1016.3 hPa | - | - | - | - |
| 1777703956 | 20° C | 59% | 1016.4 hPa | - | - | - | - |
| 1777703056 | 20° C | 59% | 1016.3 hPa | - | - | - | - |
| 1777702155 | 19.44° C | 58% | 1016.2 hPa | - | - | - | - |
| 1777701255 | 19.44° C | 56% | 1015.8 hPa | - | - | - | - |
| 1777700355 | 19.44° C | 56% | 1015.6 hPa | - | - | - | - |
| 1777699455 | 19.44° C | 56% | 1015.8 hPa | - | - | - | - |
| 1777698555 | 19.44° C | 56% | 1015.7 hPa | - | - | - | - |
| 1777697655 | 19.44° C | 56% | 1015.5 hPa | - | - | - | - |
| 1777696755 | 19.44° C | 56% | 1015.4 hPa | - | - | - | - |
* Rain since midnight (hover to see other rain measurements)
** Current wind speed in m/s (hover to see current wind gust speed)